Regional Weather Roundup
Issued by NWS Burlington, VT

Home | Current Version | Previous Version | Text Only | Print | Product List | Glossary On
Versions: 1 2 3 4 5 6 7 8 9 10 11 12 13 14 15 16 17 18 19 20 21 22 23 24 25 26 27 28 29 30 31 32 33 34 35 36 37 38 39 40 41 42 43 44 45 46 47 48 49 50
000
ASUS41 KBTV 290930
RWRBTV
VERMONT REGIONAL WEATHER ROUNDUP
NATIONAL WEATHER SERVICE BURLINGTON VT
500 AM EDT WED JUL 29 2015

NOTE: "FAIR" INDICATES FEW OR NO CLOUDS BELOW 12,000 FEET WITH NO
SIGNIFICANT WEATHER AND/OR OBSTRUCTIONS TO VISIBILITY.

* THESE REPORTS ARE NOT UNDER NWS QUALITY CONTROL AND/OR DO NOT
  REPORT WEATHER SUCH AS PRECIPITATION AND FOG.

VTZ001>019-291000-
_____VERMONT_____


CITY           SKY/WX    TMP DP  RH WIND       PRES   REMARKS
BURLINGTON     CLEAR     68  63  84 CALM      29.96R
MONTPELIER     FOG       60  59  96 CALM      30.03S VSB 1/2
MORRISVILLE    FOG       65  62  90 CALM      30.00R VSB 1/2
ST. JOHNSBURY*   N/A     64  62  93 MISG      29.97S
LYNDONVILLE*   FOG       60  60  97 CALM      30.01S VSB 1/2
MIDDLEBURY*    FAIR      63  63 100 CALM      29.97R
SPRINGFIELD    FOG       60  60 100 CALM      30.00R VSB 1/4
HIGHGATE*      FAIR      67  65  95 SE3       29.95R
NEWPORT*       FAIR      62  62  98 CALM      29.99R
BENNINGTON     CLEAR     61  60  97 CALM      30.00R FOG
SUTTON*          N/A     63 N/A N/A MISG        N/A
GALLUP MILLS*    N/A     57 N/A N/A MISG        N/A
MT. MANSFIELD*   N/A     63 N/A N/A NW10        N/A

_____LAKE CHAMPLAIN_____


CITY           SKY/WX    TMP DP  RH WIND       PRES   REMARKS
COLCHESTER RF*   N/A     73  66  78 S12         N/A
DIAMOND ISL*     N/A     70  68  94 S5          N/A

$$

NYZ007-026>031-035-052-083-291000-
_____NORTHERN NEW YORK_____


CITY           SKY/WX    TMP DP  RH WIND       PRES   REMARKS
PLATTSBURGH    CLEAR     65  64  97 CALM      29.94R
SARANAC LAKE   PTCLDY    56  55  97 CALM      30.03R
MASSENA        CLEAR     68  59  73 SW6       29.95R
OGDENSBURG*    CLEAR     66  63  88 SW3       29.96R
STARK FALLS*     N/A     72 N/A N/A SW3         N/A
WATERTOWN      CLEAR     65  58  78 S3        29.98R
FT DRUM        CLEAR     66  59  77 S6        29.99R
ALBANY         PTCLDY    68  62  81 CALM      29.97S
GLENS FALLS    CLEAR     65  62  90 CALM      29.97S FOG

$$
NHZ002-005-011-291000-
_____NEW HAMPSHIRE_____


CITY           SKY/WX    TMP DP  RH WIND       PRES   REMARKS
LEBANON        FOG       60  58  92 CALM      29.98S VSB 1/2
KEENE          PTCLDY    63  57  82 CALM      29.99R
MT WASHINGTON  FOG       54  54 100 NW24        N/A  VSB 0
PLYMOUTH       CLOUDY    59  59 100 CALM      29.98R FOG
WHITEFIELD     PTCLDY    60  58  92 CALM      30.00R

$$

_____REGIONAL QUEBEC LOCATIONS_____


CITY           SKY/WX    TMP DP  RH WIND       PRES   REMARKS
MONTREAL       MOCLDY    72  66  83 SW10      29.93R
QUEBEC CITY    PTCLDY    61  55  82 NE6       29.93R
SHERBROOKE     CLEAR     59  59 100 VRB2      29.96R FOG

_____REGIONAL ONTARIO LOCATIONS_____


CITY           SKY/WX    TMP DP  RH WIND       PRES   REMARKS
OTTAWA         MOCLDY    68  68 100 S5        29.94R

______KEY______
VSB  - VISIBILITY IN MILES
WCI  - WIND CHILL INDEX
HX   - HEAT INDEX
$$
NNNN



USA.gov is the U.S. government's official web portal to all federal, state and local government web resources and services.